FW4751 Weather Reports


Display with metric or nautical units.
time (UTC)temp
F
wind
direction
speed
MPH
gust
MPH
rain 1hr
in
rain 24hr
in
rain mn
in
humidity
%
barometer
mb
20210126214010 52 158 3.0 8.0 0.00 0.00 0.00 57 1013.6
20210126213508 52 225 2.0 7.0 0.00 0.00 0.00 57 1013.6
20210126213016 52 225 2.0 6.0 0.00 0.00 0.00 57 1013.7
20210126212509 52 225 3.0 8.0 0.00 0.00 0.00 57 1013.6
20210126212018 52 225 3.0 8.0 0.00 0.00 0.00 58 1014.0
20210126211518 52 225 3.0 7.0 0.00 0.00 0.00 57 1014.0
20210126211027 52 225 4.0 9.0 0.00 0.00 0.00 57 1014.1
20210126210522 52 225 3.0 5.0 0.00 0.00 0.00 58 1014.2
20210126210044 52 248 2.0 6.0 0.00 0.00 0.00 58 1014.2
20210126205521 52 158 2.0 7.0 0.00 0.00 0.00 59 1014.2
20210126205016 52 135 2.0 4.0 0.00 0.00 0.00 58 1014.3
20210126204521 52 158 2.0 6.0 0.00 0.00 0.00 58 1014.2
20210126204024 52 158 1.0 5.0 0.00 0.00 0.00 58 1014.4
20210126203520 51 158 2.0 3.0 0.00 0.00 0.00 58 1014.4
20210126203016 51 158 3.0 8.0 0.00 0.00 0.00 59 1014.6
20210126202527 51 158 3.0 7.0 0.00 0.00 0.00 59 1014.6
20210126202020 51 158 2.0 6.0 0.00 0.00 0.00 58 1014.7
20210126201519 51 158 2.0 6.0 0.00 0.00 0.00 59 1014.7
20210126201010 51 135 2.0 6.0 0.00 0.00 0.00 58 1015.0
20210126200519 51 135 2.0 7.0 0.00 0.00 0.00 58 1015.1
20210126200012 51 135 2.0 7.0 0.00 0.00 0.00 58 1015.1
20210126195511 50 135 2.0 7.0 0.00 0.00 0.00 58 1015.1
20210126195018 50 158 3.0 6.0 0.00 0.00 0.00 59 1015.3
20210126194511 51 135 2.0 8.0 0.00 0.00 0.00 58 1015.3
20210126194021 50 158 2.0 5.0 0.00 0.00 0.00 59 1015.4
20210126193515 50 135 3.0 6.0 0.00 0.00 0.00 59 1015.4
20210126193020 50 135 3.0 7.0 0.00 0.00 0.00 59 1015.7
20210126192517 50 135 2.0 6.0 0.00 0.00 0.00 59 1015.7
20210126192020 50 158 3.0 9.0 0.00 0.00 0.00 59 1015.7
20210126191520 50 158 3.0 7.0 0.00 0.00 0.00 59 1015.6
20210126191021 50 158 2.0 5.0 0.00 0.00 0.00 58 1015.6
20210126190519 50 135 3.0 8.0 0.00 0.00 0.00 58 1015.7
20210126190020 50 158 4.0 9.0 0.00 0.00 0.00 59 1015.8
20210126185521 49 158 3.0 8.0 0.00 0.00 0.00 60 1015.9
20210126185020 49 90 2.0 7.0 0.00 0.00 0.00 60 1015.8
20210126184519 49 113 3.0 8.0 0.00 0.00 0.00 61 1015.8
20210126184019 49 90 4.0 11.0 0.00 0.00 0.00 60 1015.8
20210126183520 49 90 3.0 6.0 0.00 0.00 0.00 61 1015.8
20210126183024 49 90 3.0 7.0 0.00 0.00 0.00 61 1015.8
20210126182522 48 90 3.0 9.0 0.00 0.00 0.00 61 1015.8
20210126182018 49 158 3.0 9.0 0.00 0.00 0.00 61 1015.8
20210126181520 48 158 2.0 7.0 0.00 0.00 0.00 61 1015.7
20210126181022 48 158 2.0 7.0 0.00 0.00 0.00 62 1015.6
20210126180523 48 90 2.0 6.0 0.00 0.00 0.00 62 1015.6
20210126180024 47 158 3.0 8.0 0.00 0.00 0.00 63 1015.6
20210126175516 47 135 3.0 7.0 0.00 0.00 0.00 63 1015.6
20210126175024 47 135 2.0 5.0 0.00 0.00 0.00 65 1015.5
20210126174523 46 113 2.0 6.0 0.00 0.00 0.00 65 1015.5
20210126174024 46 158 2.0 6.0 0.00 0.00 0.00 66 1015.5
20210126173509 46 90 2.0 6.0 0.00 0.00 0.00 67 1015.5
20210126173009 45 135 2.0 5.0 0.00 0.00 0.00 68 1015.4
20210126172514 45 158 3.0 6.0 0.00 0.00 0.00 69 1015.4
20210126172021 44 158 2.0 5.0 0.00 0.00 0.00 71 1015.3
20210126171507 44 158 3.0 7.0 0.00 0.00 0.00 72 1015.2
20210126171017 43 135 2.0 4.0 0.00 0.00 0.00 73 1015.2
20210126170523 42 135 2.0 5.0 0.00 0.00 0.00 74 1015.1
20210126170023 42 158 2.0 5.0 0.00 0.00 0.00 76 1015.1
20210126165522 41 158 3.0 5.0 0.00 0.00 0.00 76 1015.1
20210126165018 40 158 2.0 5.0 0.00 0.00 0.00 78 1015.1
20210126164523 40 135 1.0 3.0 0.00 0.00 0.00 79 1014.9
20210126164017 39 158 2.0 4.0 0.00 0.00 0.00 80 1014.9
20210126163522 39 158 2.0 4.0 0.00 0.00 0.00 81 1014.9
20210126163017 38 158 2.0 4.0 0.00 0.00 0.00 82 1014.9
20210126162509 38 135 2.0 3.0 0.00 0.00 0.00 83 1014.8
20210126162022 37 158 2.0 4.0 0.00 0.00 0.00 85 1014.8
20210126161518 37 135 1.0 2.0 0.00 0.00 0.00 87 1014.8
20210126161022 36 158 1.0 3.0 0.00 0.00 0.00 88 1014.8
20210126160516 35 180 1.0 2.0 0.00 0.00 0.00 91 1014.7
20210126160023 34 225 1.0 2.0 0.00 0.00 0.00 92 1014.7
20210126155512 34 158 1.0 2.0 0.00 0.00 0.00 93 1014.5
20210126155023 33 0.0 2.0 0.00 0.00 0.00 93 1014.6
20210126154519 32 0.0 1.0 0.00 0.00 0.00 93 1014.6
20210126154020 32 0.0 1.0 0.00 0.00 0.00 93 1014.7
20210126153512 32 0.0 1.0 0.00 0.00 0.00 93 1014.7
20210126153019 32 0.0 1.0 0.00 0.00 0.00 93 1014.6
20210126152518 32 0.0 1.0 0.00 0.00 0.00 93 1014.7
20210126152017 32 0.0 2.0 0.00 0.00 0.00 93 1014.6
20210126151525 32 0.0 1.0 0.00 0.00 0.00 93 1014.5
20210126151017 32 0.0 1.0 0.00 0.00 0.00 93 1014.5
20210126150514 32 225 1.0 1.0 0.00 0.00 0.00 93 1014.5
20210126150025 32 225 1.0 1.0 0.00 0.00 0.00 93 1014.5
20210126145509 32 0.0 1.0 0.00 0.00 0.00 92 1014.5
20210126145017 33 0.0 2.0 0.00 0.00 0.00 93 1014.4
20210126144522 33 225 1.0 2.0 0.00 0.00 0.00 92 1014.5
20210126144019 33 0.0 2.0 0.00 0.00 0.00 92 1014.6
20210126143520 33 0.0 1.0 0.00 0.00 0.00 92 1014.5
20210126143020 33 180 1.0 1.0 0.00 0.00 0.00 92 1014.5
20210126142514 33 0.0 1.0 0.00 0.00 0.00 92 1014.5
20210126142016 33 225 1.0 2.0 0.00 0.00 0.00 92 1014.5
20210126141523 33 203 1.0 1.0 0.00 0.00 0.00 92 1014.4
20210126141024 33 203 1.0 2.0 0.00 0.00 0.00 92 1014.4
20210126140523 33 203 1.0 2.0 0.00 0.00 0.00 92 1014.4
20210126140020 33 225 1.0 2.0 0.00 0.00 0.00 92 1014.3
20210126135518 33 203 1.0 2.0 0.00 0.00 0.00 92 1014.3
20210126135019 33 0.0 1.0 0.00 0.00 0.00 92 1014.2
20210126134518 33 0.0 1.0 0.00 0.00 0.00 92 1014.2
20210126134016 33 203 1.0 2.0 0.00 0.00 0.00 92 1014.1
20210126133522 33 225 1.0 2.0 0.00 0.00 0.00 92 1013.9
20210126133024 33 0.0 2.0 0.00 0.00 0.00 92 1013.8
20210126132515 33 225 1.0 1.0 0.00 0.00 0.00 92 1013.9
20210126132024 33 0.0 1.0 0.00 0.00 0.00 92 1013.6
20210126131517 33 0.0 1.0 0.00 0.00 0.00 92 1013.5
20210126131018 33 225 1.0 2.0 0.00 0.00 0.00 92 1013.5
20210126130519 33 0.0 2.0 0.00 0.00 0.00 91 1013.4
20210126130019 34 0.0 1.0 0.00 0.00 0.00 91 1013.3
20210126125511 34 0.0 1.0 0.00 0.00 0.00 91 1013.3
20210126125024 34 0.0 1.0 0.00 0.00 0.00 91 1013.3
20210126124520 34 0.0 1.0 0.00 0.00 0.00 91 1013.3
20210126124022 34 0.0 1.0 0.00 0.00 0.00 91 1013.4
20210126123517 34 0.0 1.0 0.00 0.00 0.00 91 1013.4
20210126123020 34 0.0 1.0 0.00 0.00 0.00 91 1013.4
20210126122520 34 0.0 1.0 0.00 0.00 0.00 91 1013.4
20210126122014 34 0.0 1.0 0.00 0.00 0.00 91 1013.4
20210126121523 34 203 1.0 2.0 0.00 0.00 0.00 91 1013.3
20210126121017 35 180 1.0 2.0 0.00 0.00 0.00 90 1013.3
20210126120516 35 203 1.0 2.0 0.00 0.00 0.00 90 1013.3
20210126120021 35 180 1.0 2.0 0.00 0.00 0.00 91 1013.2
20210126115529 35 203 1.0 2.0 0.00 0.00 0.00 90 1013.2
20210126115014 35 0.0 1.0 0.00 0.00 0.00 90 1013.2
20210126114522 35 0.0 1.0 0.00 0.00 0.00 90 1013.2
20210126114022 35 0.0 1.0 0.00 0.00 0.00 89 1013.0
20210126113522 36 0.0 1.0 0.00 0.00 0.00 89 1013.0
20210126113029 35 0.0 1.0 0.00 0.00 0.00 89 1012.9
20210126112522 36 0.0 1.0 0.00 0.00 0.00 89 1012.9
20210126112023 36 0.0 2.0 0.00 0.00 0.00 89 1013.0
20210126111517 36 45 1.0 2.0 0.00 0.00 0.00 88 1013.0
20210126111022 36 135 1.0 2.0 0.00 0.00 0.00 88 1012.9
20210126110544 36 0.0 1.0 0.00 0.00 0.00 88 1012.9
20210126110021 37 0.0 1.0 0.00 0.00 0.00 88 1012.9
20210126105515 36 0.0 1.0 0.00 0.00 0.00 87 1012.9
20210126105020 37 23 1.0 1.0 0.00 0.00 0.00 87 1012.9
20210126104526 37 90 1.0 1.0 0.00 0.00 0.00 86 1012.9
20210126104020 37 158 1.0 2.0 0.00 0.00 0.00 86 1012.9
20210126103528 38 0.0 1.0 0.00 0.00 0.00 86 1012.9
20210126103022 38 0.0 1.0 0.00 0.00 0.00 86 1012.9
20210126102517 38 0.0 2.0 0.00 0.00 0.00 85 1013.0
20210126102020 38 203 1.0 2.0 0.00 0.00 0.00 83 1013.0
20210126101522 39 158 1.0 2.0 0.00 0.00 0.00 83 1012.9
20210126101019 39 158 1.0 2.0 0.00 0.00 0.00 82 1012.8
20210126100517 40 158 1.0 2.0 0.00 0.00 0.00 82 1012.8
20210126100046 40 203 1.0 2.0 0.00 0.00 0.00 81 1012.7
20210126095508 40 225 1.0 2.0 0.00 0.00 0.00 82 1012.8
20210126095017 40 0.0 2.0 0.00 0.00 0.00 82 1012.8
20210126094512 40 293 1.0 2.0 0.00 0.00 0.00 82 1012.7
20210126094006 40 293 1.0 2.0 0.00 0.00 0.00 82 1012.7
20210126093517 40 293 1.0 2.0 0.00 0.00 0.00 81 1012.6
20210126093028 41 0.0 1.0 0.00 0.00 0.00 80 1012.4
20210126092515 41 0.0 2.0 0.00 0.00 0.00 80 1012.5
20210126092018 42 225 1.0 2.0 0.00 0.00 0.00 79 1012.6
20210126091519 42 270 1.0 3.0 0.00 0.00 0.00 79 1012.5
20210126091019 42 270 1.0 3.0 0.00 0.00 0.00 79 1012.5
20210126090520 42 270 1.0 4.0 0.00 0.00 0.00 79 1012.6
20210126090015 42 270 2.0 5.0 0.00 0.00 0.00 80 1012.7
20210126085512 42 293 1.0 4.0 0.00 0.00 0.00 81 1012.5
20210126085018 42 293 1.0 3.0 0.00 0.00 0.00 80 1012.5
20210126084516 42 293 2.0 3.0 0.00 0.00 0.00 80 1012.5
20210126084016 42 293 2.0 4.0 0.00 0.00 0.00 78 1012.5
20210126083515 43 293 2.0 6.0 0.00 0.00 0.00 78 1012.4
20210126083020 43 338 1.0 3.0 0.00 0.00 0.00 78 1012.4
20210126082515 43 293 2.0 4.0 0.00 0.00 0.00 77 1012.4
20210126082016 43 293 2.0 5.0 0.00 0.00 0.00 77 1012.3
20210126081522 44 293 2.0 5.0 0.00 0.00 0.00 77 1012.3
20210126081018 43 293 2.0 6.0 0.00 0.00 0.00 77 1012.3
20210126080514 44 293 2.0 5.0 0.00 0.00 0.00 77 1012.4
20210126080019 43 293 3.0 6.0 0.00 0.00 0.00 77 1012.4
20210126075513 43 293 2.0 5.0 0.00 0.00 0.00 77 1012.3
20210126075010 44 293 3.0 8.0 0.00 0.00 0.00 77 1012.4
20210126074517 43 293 2.0 5.0 0.00 0.00 0.00 77 1012.3
20210126074017 43 270 2.0 6.0 0.00 0.00 0.00 77 1012.3
20210126073519 44 293 2.0 4.0 0.00 0.00 0.00 76 1012.4
20210126073019 44 203 2.0 4.0 0.00 0.00 0.00 76 1012.2
20210126072519 44 225 1.0 2.0 0.00 0.00 0.00 76 1012.3
20210126072010 44 248 1.0 3.0 0.00 0.00 0.00 75 1012.1
20210126071510 44 293 2.0 6.0 0.00 0.00 0.00 74 1012.1
20210126071022 45 293 2.0 5.0 0.00 0.00 0.00 74 1012.1
20210126070519 45 293 2.0 5.0 0.00 0.00 0.00 73 1012.0
20210126070018 45 293 4.0 8.0 0.00 0.00 0.00 73 1012.0
20210126065520 45 293 3.0 6.0 0.00 0.00 0.00 72 1011.9
20210126065017 45 293 3.0 8.0 0.00 0.00 0.00 72 1012.0
20210126064520 45 293 4.0 8.0 0.00 0.00 0.00 71 1011.8
20210126064010 45 293 4.0 8.0 0.00 0.00 0.00 71 1011.8
20210126063522 45 293 4.0 8.0 0.00 0.00 0.00 71 1011.7
20210126063020 45 293 4.0 10.0 0.00 0.00 0.00 70 1011.9
20210126062508 45 293 4.0 10.0 0.00 0.00 0.00 70 1011.7
20210126062020 45 293 3.0 9.0 0.00 0.00 0.00 70 1011.7
20210126061521 45 293 4.0 10.0 0.00 0.00 0.00 70 1011.7
20210126061027 45 293 4.0 7.0 0.00 0.00 0.00 70 1011.7
20210126060537 45 293 6.0 13.0 0.00 0.00 0.00 71 1011.6
20210126060026 45 293 5.0 11.0 0.00 0.00 0.00 71 1011.6
20210126055518 45 293 4.0 8.0 0.00 0.00 0.00 71 1011.5
20210126055020 45 293 5.0 11.0 0.00 0.00 0.00 71 1011.6
20210126054522 45 293 4.0 8.0 0.00 0.00 0.00 71 1011.5
20210126054023 46 293 4.0 11.0 0.00 0.00 0.00 71 1011.4
20210126053514 46 293 4.0 9.0 0.00 0.00 0.00 70 1011.3
20210126053021 46 293 5.0 11.0 0.00 0.00 0.00 70 1011.3
20210126052518 46 293 3.0 7.0 0.00 0.00 0.00 69 1011.4
20210126052019 46 293 4.0 7.0 0.00 0.00 0.00 69 1011.2
20210126051524 46 293 6.0 14.0 0.00 0.00 0.00 69 1011.2
20210126051018 46 293 4.0 9.0 0.00 0.00 0.00 69 1011.0
20210126050520 46 293 5.0 11.0 0.00 0.00 0.00 69 1011.1
20210126050025 46 293 4.0 11.0 0.00 0.00 0.00 69 1010.9
20210126045517 46 293 4.0 7.0 0.00 0.00 0.00 69 1010.9
20210126045019 46 293 4.0 11.0 0.00 0.00 0.00 69 1010.9
20210126044522 46 293 3.0 7.0 0.00 0.00 0.00 69 1010.8
20210126044017 46 293 6.0 12.0 0.00 0.00 0.00 69 1010.7
20210126043516 46 293 4.0 11.0 0.00 0.00 0.00 70 1010.6
20210126043023 46 293 5.0 13.0 0.00 0.00 0.00 69 1010.6
20210126042519 46 293 7.0 15.0 0.00 0.00 0.00 69 1010.5
20210126042021 46 293 5.0 12.0 0.00 0.01 0.00 69 1010.5
20210126041516 46 293 6.0 11.0 0.00 0.01 0.00 68 1010.5
20210126041017 46 293 5.0 12.0 0.00 0.01 0.00 68 1010.5
20210126040508 46 293 5.0 13.0 0.00 0.02 0.00 68 1010.4
20210126040021 46 293 7.0 18.0 0.00 0.02 0.00 68 1010.4
20210126035515 46 315 4.0 9.0 0.00 0.02 0.00 69 1010.4
20210126035020 46 293 8.0 16.0 0.00 0.02 0.00 69 1010.3
20210126034516 46 293 5.0 14.0 0.00 0.02 0.00 69 1010.4
20210126034025 46 293 5.0 12.0 0.00 0.02 0.00 68 1010.2
20210126033513 46 293 6.0 12.0 0.00 0.02 0.00 67 1010.2
20210126033022 46 293 5.0 11.0 0.00 0.02 0.00 67 1010.2
20210126032509 46 293 6.0 14.0 0.00 0.02 0.00 67 1010.0
20210126032012 46 293 7.0 13.0 0.00 0.02 0.00 67 1010.0
20210126031523 46 293 6.0 15.0 0.00 0.02 0.00 67 1010.0
20210126031008 46 293 8.0 17.0 0.00 0.02 0.00 67 1010.1
20210126030517 46 293 6.0 14.0 0.00 0.02 0.00 67 1010.0
20210126030027 46 293 7.0 13.0 0.00 0.02 0.00 67 1010.1
20210126025511 46 293 7.0 17.0 0.00 0.02 0.00 67 1010.1
20210126025018 46 293 6.0 11.0 0.00 0.02 0.00 66 1010.0
20210126024523 47 293 6.0 14.0 0.00 0.02 0.00 66 1010.0
20210126024019 47 293 8.0 19.0 0.00 0.02 0.00 65 1010.1
20210126023519 47 293 8.0 15.0 0.00 0.02 0.00 65 1009.9
20210126023025 47 293 9.0 16.0 0.00 0.03 0.00 64 1010.0
20210126022525 47 293 8.0 16.0 0.00 0.03 0.00 64 1010.0
20210126022020 47 293 8.0 20.0 0.00 0.03 0.00 64 1010.0
20210126021523 47 293 8.0 17.0 0.00 0.04 0.00 64 1010.0
20210126021019 47 293 6.0 12.0 0.00 0.05 0.00 65 1010.1
20210126020520 47 293 7.0 13.0 0.00 0.06 0.00 65 1010.1
20210126020033 47 293 7.0 13.0 0.00 0.06 0.00 65 1010.0
20210126015516 47 293 8.0 17.0 0.00 0.07 0.00 65 1010.1
20210126015011 47 293 6.0 14.0 0.00 0.07 0.00 66 1010.1
20210126014520 47 293 8.0 14.0 0.00 0.07 0.00 66 1010.1
20210126014022 47 293 6.0 13.0 0.00 0.07 0.00 67 1010.1
20210126013517 47 293 6.0 14.0 0.00 0.07 0.00 67 1010.1
20210126013021 48 293 7.0 17.0 0.00 0.07 0.00 66 1010.2
20210126012519 48 293 7.0 13.0 0.00 0.07 0.00 65 1010.2
20210126012039 48 293 7.0 13.0 0.00 0.07 0.00 64 1010.2
20210126011520 48 270 7.0 14.0 0.00 0.07 0.00 64 1010.2
20210126011020 48 293 7.0 15.0 0.00 0.07 0.00 64 1010.2
20210126010521 48 293 7.0 17.0 0.00 0.07 0.00 65 1010.1
20210126010020 48 293 9.0 19.0 0.00 0.07 0.00 65 1010.2
20210126005517 49 293 10.0 23.0 0.00 0.07 0.00 65 1010.2
20210126005014 49 293 7.0 15.0 0.00 0.07 0.00 65 1010.3
20210126004520 49 293 9.0 16.0 0.00 0.08 0.00 64 1010.2
20210126004013 49 293 8.0 15.0 0.00 0.08 0.00 64 1010.2
20210126003521 49 293 10.0 18.0 0.00 0.08 0.00 63 1010.1
20210126003024 49 293 9.0 17.0 0.00 0.09 0.00 63 1010.1
20210126002511 49 293 7.0 18.0 0.00 0.09 0.00 63 1010.0
20210126002018 50 293 8.0 17.0 0.00 0.10 0.00 62 1010.1
20210126001523 50 293 10.0 26.0 0.00 0.11 0.00 61 1010.2
20210126001020 50 293 8.0 21.0 0.00 0.12 0.00 61 1010.2
20210126000538 50 293 8.0 17.0 0.00 0.12 0.00 61 1010.2
20210126000019 50 293 6.0 16.0 0.00 0.12 0.00 61 1010.1
20210125235515 50 293 7.0 17.0 0.00 0.12 0.00 60 1010.0
20210125235024 51 293 10.0 22.0 0.00 0.13 0.00 60 1010.1
20210125234521 51 293 8.0 19.0 0.00 0.13 0.00 59 1010.0
20210125234021 51 293 7.0 16.0 0.00 0.13 0.00 58 1010.0
20210125233516 51 293 8.0 19.0 0.00 0.14 0.00 59 1010.1
20210125233021 51 293 8.0 20.0 0.00 0.14 0.00 58 1010.0
20210125232521 51 293 11.0 19.0 0.00 0.14 0.00 58 1009.9
20210125232009 51 293 11.0 19.0 0.00 0.14 0.00 57 1010.0
20210125231530 52 293 7.0 14.0 0.00 0.14 0.00 58 1010.0
20210125231020 51 293 9.0 21.0 0.00 0.15 0.00 58 1009.9
20210125230514 52 293 10.0 19.0 0.00 0.15 0.00 57 1010.1
20210125230018 52 293 7.0 14.0 0.00 0.15 0.00 57 1010.0
20210125225519 51 293 8.0 14.0 0.00 0.15 0.00 57 1010.1
20210125225017 52 293 6.0 15.0 0.00 0.15 0.00 57 1010.0
20210125224520 52 293 7.0 16.0 0.00 0.15 0.00 57 1010.0
20210125224020 51 293 7.0 17.0 0.00 0.15 0.00 58 1010.0
20210125223516 51 293 11.0 20.0 0.00 0.15 0.00 56 1010.0
20210125223025 52 293 8.0 22.0 0.00 0.15 0.00 54 1009.9
20210125222516 52 293 8.0 22.0 0.00 0.15 0.00 54 1010.0
20210125222023 52 293 9.0 18.0 0.00 0.15 0.00 54 1010.1
20210125221534 52 293 6.0 19.0 0.00 0.15 0.00 54 1010.0
20210125221031 52 293 8.0 19.0 0.00 0.15 0.00 53 1009.8
20210125220520 52 293 9.0 19.0 0.00 0.15 0.00 52 1010.0
20210125220017 52 293 10.0 21.0 0.00 0.15 0.00 51 1009.8
20210125215518 53 293 9.0 19.0 0.00 0.15 0.00 53 1009.7
20210125215014 53 293 7.0 24.0 0.00 0.15 0.00 53 1009.8
20210125214511 52 293 7.0 15.0 0.00 0.15 0.00 54 1009.7